Weather History for KIPT - March, 2011

Change the Weather History Date:

Saturday, March 5, 2011

  Actual Average Record
Temperature  
Mean Temperature 48 °F 34 °F  
Max Temperature 57 °F 44 °F 73 °F (1976)
Min Temperature 39 °F 25 °F 2 °F (1978)
Degree Days  
Heating Degree Days 17 31  
Month to date heating degree days 150 157  
Since 1 July heating degree days 4704 4624  
Cooling Degree Days 0 0  
Month to date cooling degree days 0 0  
Year to date cooling degree days 0 0  
Moisture  
Dew Point 40 °F    
Average Humidity 70    
Maximum Humidity 82    
Minimum Humidity 57    
Precipitation  
Precipitation T in 0.09 in 1.52 in (1920)
Month to date precipitation T 0.42  
Year to date precipitation 5.45 5.46  
Snow  
Snow 0.00 in 0.30 in 14.80 in (1902)
Month to date snowfall 0.0 1.5  
Since 1 July snowfall 32.6 29.5  
Snow Depth 0.00 in    
Sea Level Pressure  
Sea Level Pressure 30.20 in    
Wind  
Wind Speed 10 mph (SE)    
Max Wind Speed 23 mph    
Max Gust Speed 44 mph    
Visibility 10 miles    
Events Rain    
T = Trace of Precipitation, MM = Missing Value Source: NWS Daily Summary

Daily Weather History Graph

Daily Weather History Graph

Search for Another Location

Airport or City:

Trip Planner

Search our weather history database for the weather conditions in past years. The results will help you decide how hot, cold, wet, or windy it might be!

Date:

Astronomy

Mar. 05, 2011 Rise Set
Actual Time 6:36 AM EST 6:02 PM EST
Civil Twilight 6:08 AM EST 6:30 PM EST
Nautical Twilight 5:36 AM EST 7:02 PM EST
Astronomical Twilight 5:04 AM EST 7:34 PM EST
Moon 6:32 AM EST (3/5) 7:08 PM EST (3/5)
Length of Visible Light 12h 21m
Length of Day
11h 26m
New Moon, 1% of the Moon is Illuminated
Mar 5
New Moon
Mar 12
First Quarter
Mar 19
Full
Mar 26
Last Quarter
Apr 3
New

Hourly Weather History & Observations

Time (EST) Temp. Windchill Dew Point Humidity Pressure Visibility Wind Dir Wind Speed Gust Speed Precip Events Conditions
12:54 AM 39.9 °F 36.7 °F 30.9 °F 70% 30.42 in 10.0 mi Variable 4.6 mph - N/A   Overcast
1:54 AM 39.9 °F 34.5 °F 32.0 °F 73% 30.40 in 10.0 mi East 8.1 mph - N/A   Overcast
2:54 AM 39.9 °F 32.9 °F 32.0 °F 73% 30.37 in 10.0 mi ENE 11.5 mph 25.3 mph N/A   Overcast
3:54 AM 39.9 °F 33.9 °F 33.1 °F 77% 30.34 in 10.0 mi SE 9.2 mph 19.6 mph N/A   Overcast
4:54 AM 39.9 °F 35.1 °F 34.0 °F 79% 30.33 in 10.0 mi Variable 6.9 mph 24.2 mph N/A   Overcast
5:54 AM 41.0 °F 35.2 °F 35.6 °F 81% 30.30 in 10.0 mi SSE 9.2 mph 23.0 mph N/A   Overcast
6:46 AM 41.0 °F 35.2 °F 35.6 °F 81% 30.28 in 10.0 mi SSE 9.2 mph 25.3 mph N/A   Overcast
6:54 AM 41.0 °F 32.8 °F 36.0 °F 82% 30.30 in 10.0 mi SE 16.1 mph 21.9 mph N/A   Overcast
7:54 AM 42.1 °F 37.7 °F 37.9 °F 85% 30.30 in 10.0 mi Variable 6.9 mph 24.2 mph 0.00 in   Overcast
8:54 AM 43.0 °F 36.8 °F 37.9 °F 82% 30.29 in 10.0 mi ESE 11.5 mph 19.6 mph N/A   Overcast
9:54 AM 46.0 °F 40.2 °F 39.9 °F 79% 30.26 in 10.0 mi SE 12.7 mph 24.2 mph N/A   Overcast
10:06 AM 46.4 °F 41.1 °F 39.2 °F 76% 30.25 in 10.0 mi SE 11.5 mph 21.9 mph N/A   Overcast
10:54 AM 48.9 °F - 39.9 °F 71% 30.24 in 10.0 mi ENE 9.2 mph - N/A   Overcast
11:54 AM 50.0 °F - 41.0 °F 71% 30.22 in 10.0 mi ESE 9.2 mph 16.1 mph N/A   Overcast
12:54 PM 50.0 °F - 43.0 °F 77% 30.17 in 10.0 mi ESE 18.4 mph 33.4 mph N/A   Overcast
1:54 PM 52.0 °F - 44.1 °F 74% 30.16 in 10.0 mi West 8.1 mph - N/A   Overcast
2:34 PM 55.4 °F - 44.6 °F 67% 30.13 in 10.0 mi Variable 4.6 mph 21.9 mph N/A   Mostly Cloudy
2:54 PM 55.0 °F - 44.1 °F 67% 30.14 in 10.0 mi SSW 9.2 mph 32.2 mph N/A   Overcast
3:10 PM 55.4 °F - 44.6 °F 67% 30.12 in 10.0 mi SSE 11.5 mph 25.3 mph N/A   Mostly Cloudy
3:54 PM 55.9 °F - 44.1 °F 64% 30.11 in 10.0 mi SSE 15.0 mph 31.1 mph N/A   Scattered Clouds
4:54 PM 55.9 °F - 43.0 °F 62% 30.09 in 10.0 mi SE 11.5 mph 26.5 mph N/A   Scattered Clouds
5:54 PM 57.0 °F - 43.0 °F 59% 30.07 in 10.0 mi Variable 4.6 mph - 0.00 in   Overcast
6:54 PM 55.9 °F - 44.1 °F 64% 30.06 in 10.0 mi Variable 5.8 mph - 0.00 in   Overcast
7:54 PM 54.0 °F - 44.1 °F 69% 30.05 in 10.0 mi SE 10.4 mph - 0.00 in Rain Light Rain
8:54 PM 55.0 °F - 44.1 °F 67% 30.05 in 10.0 mi SSE 12.7 mph 26.5 mph 0.00 in   Mostly Cloudy
9:54 PM 54.0 °F - 45.0 °F 72% 30.04 in 10.0 mi SSE 11.5 mph 19.6 mph N/A   Overcast
10:54 PM 54.0 °F - 46.0 °F 75% 30.01 in 10.0 mi SSE 16.1 mph 27.6 mph N/A   Mostly Cloudy
11:54 PM 53.1 °F - 46.9 °F 80% 29.99 in 10.0 mi SSE 12.7 mph 29.9 mph 0.00 in Rain Light Rain